Location: Widewater Village at Stafford
(38.4893°N, 77.3783°W)
Time: 10:36:11
(UTC+00:00)

Tiangong - Pass Details

Date: 05 December 2022
Orbit: 383 x 386 km, 41.5° (Epoch: 29 January)

Event Time Altitude Azimuth Distance (km) Brightness Sun altitude
Rises 23:11:05 0° 280° (W) 2,256 2.9 -15.8°
Reaches altitude 10° 23:13:12 10° 287° (WNW) 1,404 1.6 -16.2°
Maximum altitude 23:16:16 46° 2° (N) 526 -1.7 -16.7°
Enters shadow 23:16:43 42° 31° (NNE) 559 -1.7 -16.8°
